Weather observations for the past three days for
Greenwood, Greenwood-LeFlore Airport
Imperial (Metric)
Date Time (cdt) Wind (mph) Vis. (mi.) Weather Sky Cond. Temperature (ºF) Relative Humidity Wind Chill (°F) Heat Index (°F) Pressure Precipitation (in)
Air Dwpt 6 hour altimeter (in) sea level (mb) 1 hr 3 hr 6 hr
Max. Min.
22 22:53 Calm 10.00 Fair CLR 78.1 73 85% 81 29.99 1015.4
22 21:53 Calm 10.00 Fair CLR 79 72 79% 82 29.99 1015.2
22 20:53 Calm 10.00 Fair CLR 80.1 70 71% 83 29.97 1014.5
22 19:53 Calm 10.00 Fair CLR 84.9 71.1 63% 90 29.97 1014.6
22 18:53 Calm 10.00 Fair CLR 90 70 96.1 90 52% 95 29.97 1014.4
22 17:53 Vrbl 3 10.00 Fair CLR 93.9 68 43% 98 29.97 1014.5
22 16:53 Vrbl 3 10.00 Partly Cloudy SCT060 95 68 41% 100 29.98 1014.9
22 15:53 NW 3 10.00 A Few Clouds FEW065 93 69.1 46% 98 30 1015.5
22 14:53 S 3 10.00 Partly Cloudy SCT065 95 66 39% 98 30.02 1016.1
22 13:53 SE 6 10.00 Fair CLR 95 66.9 40% 99 30.04 1016.8
22 12:53 S 6 10.00 Fair CLR 93.9 66.9 95 73.9 41% 98 30.06 1017.6
22 11:53 Vrbl 3 10.00 Fair CLR 91.9 66.9 44% 95 30.07 1018.0
22 10:53 S 5 10.00 Fair CLR 91 69.1 49% 96 30.09 1018.5
22 09:53 S 7 10.00 Fair CLR 88 69.1 54% 92 30.1 1018.8
22 08:53 S 5 10.00 Fair CLR 84.9 70 61% 89 30.11 1019.1
22 07:53 Calm 10.00 Fair CLR 79 70 74% 82 30.1 1019.1
22 06:53 Calm 10.00 Fair CLR 75 69.1 75.9 71.1 82% 75 30.1 1018.9
22 05:53 Calm 10.00 Fair CLR 71.1 68 90% 30.09 1018.7
22 04:53 Calm 10.00 Fair CLR 72 69.1 91% 30.09 1018.8
22 03:53 Calm 10.00 Fair CLR 73 69.1 87% 30.09 1018.7
22 02:53 Calm 10.00 Fair CLR 73.9 71.1 91% 30.09 1018.7
22 01:53 Calm 10.00 Fair CLR 73.9 71.1 91% 30.09 1018.6
22 00:53 Calm 10.00 Fair CLR 75.9 72 89.1 75 88% 76 30.09 1018.6
21 23:53 Calm 10.00 Fair CLR 77 72 85% 78 30.09 1018.8
21 22:53 NE 6 10.00 Fair CLR 78.1 73.9 87% 81 30.1 1018.8
21 21:53 NE 3 10.00 Fair CLR 80.1 73 79% 84 30.09 1018.6
21 20:53 Calm 10.00 Fair CLR 81 72 74% 85 30.08 1018.2
21 19:53 Calm 10.00 Fair CLR 84.9 72 65% 91 30.08 1018.3
21 18:53 Calm 10.00 Fair CLR 90 70 97 90 52% 95 30.08 1018.3
21 17:53 NE 7 10.00 Mostly Cloudy BKN090 95 66.9 40% 99 30.08 1018.3
21 16:53 NE 7 10.00 A Few Clouds FEW095 95 66.9 40% 99 30.1 1018.9
21 15:53 N 3 10.00 Mostly Cloudy SCT060 BKN085 93.9 68 43% 98 30.12 1019.5
21 14:53 Calm 10.00 Mostly Cloudy SCT060 BKN090 93 66.9 42% 97 30.14 1020.1
21 13:53 S 5 10.00 Partly Cloudy SCT055 91.9 66.9 44% 95 30.15 1020.8
21 12:53 Calm 10.00 A Few Clouds FEW055 93 66.9 93.9 75.9 42% 97 30.17 1021.4
21 11:53 E 6 10.00 Fair CLR 93 68 44% 97 30.19 1022.1
21 10:53 Calm 10.00 Fair CLR 91 69.1 49% 96 30.21 1022.6
21 09:53 Calm 10.00 Fair CLR 88 69.1 54% 92 30.21 1022.8
21 08:53 Calm 10.00 Partly Cloudy SCT075 84 70 63% 88 30.22 1022.9
21 07:53 E 5 10.00 Fair CLR 79 69.1 72% 82 30.21 1022.7
21 06:53 Calm 10.00 Overcast OVC070 75.9 69.1 75.9 72 79% 77 30.2 1022.5
21 05:53 Calm 10.00 Mostly Cloudy FEW070 BKN085 73.9 69.1 85% 30.19 1022.1
21 04:53 NE 3 10.00 Mostly Cloudy BKN090 73.9 68 82% 30.19 1021.9
21 03:53 Calm 10.00 Fair CLR 72 68 87% 30.18 1021.6
21 02:53 NE 3 10.00 Fair CLR 73 69.1 87% 30.17 1021.3
21 01:53 Calm 10.00 Partly Cloudy SCT080 73.9 69.1 85% 30.18 1021.7
21 00:53 Calm 10.00 Fair CLR 75.9 70 91 75.9 82% 77 30.18 1021.7
20 23:53 Calm 10.00 Mostly Cloudy BKN070 BKN085 77 70 79% 79 30.19 1022.0
20 22:53 Calm 10.00 Fair CLR 80.1 66.9 64% 82 30.19 1022.0
20 21:53 SE 3 10.00 Overcast BKN075 OVC095 84 68 59% 87 30.18 1021.6
20 20:53 SE 5 10.00 Overcast BKN075 OVC095 84.9 68 57% 88 30.17 1021.4
20 19:53 SE 7 10.00 Overcast FEW080 OVC095 88 68 52% 92 30.16 1020.9
20 18:53 NE 6 10.00 Mostly Cloudy BKN070 91 68 93.9 89.1 47% 95 30.15 1020.8
20 17:53 E 9 10.00 Partly Cloudy SCT075 90 64.9 44% 92 30.16 1021.1
20 16:53 NE 12 10.00 Mostly Cloudy BKN070 91.9 66 43% 95 30.17 1021.5
20 15:53 E 10 10.00 A Few Clouds FEW060 93 64.9 40% 95 30.19 1021.9
20 14:53 E 9 10.00 Partly Cloudy FEW060 SCT075 91.9 64.9 41% 94 30.2 1022.4
20 13:53 E 9 10.00 A Few Clouds FEW055 93 66 41% 96 30.21 1022.7
20 12:53 Vrbl 7 10.00 Fair CLR 91 64.9 91.9 75.9 42% 93 30.23 1023.2
20 11:53 E 12 10.00 Fair CLR 90 66.9 47% 93 30.23 1023.5
20 10:53 E 9 10.00 Fair CLR 87.1 69.1 55% 91 30.24 1023.7
20 09:53 E 12 10.00 A Few Clouds FEW075 84.9 69.1 59% 89 30.24 1023.6
20 08:53 E 7 10.00 Partly Cloudy SCT070 82 68 63% 85 30.23 1023.4
20 07:53 E 12 10.00 A Few Clouds FEW065 78.1 66 67% 80 30.21 1022.8
20 06:53 E 12 10.00 Mostly Cloudy BKN065 75.9 66.9 75.9 71.1 74% 77 30.2 1022.4
20 05:53 NE 6 10.00 A Few Clouds FEW060 73 66.9 81% 30.18 1021.7
20 04:53 Calm 10.00 A Few Clouds FEW065 71.1 66.9 87% 30.17 1021.3
20 03:53 NE 3 10.00 Fair CLR 72 66.9 84% 30.16 1021.0
20 02:53 NE 6 10.00 Fair CLR 73.9 68 82% 30.15 1020.6
20 01:53 E 8 10.00 Fair CLR 75.9 69.1 79% 77 30.15 1020.8
20 00:53 E 6 10.00 Fair CLR 75.9 70 86 73.9 82% 77 30.16 1021.2
19 23:53 NE 6 10.00 Fair CLR 75 70 84% 75 30.17 1021.3
Date Time (cdt) Wind (mph) Vis. (mi.) Weather Sky Cond. Air Dwpt Max. Min. Relative Humidity Wind Chill (°F) Heat Index (°F) altimeter (in) sea level (mb) 1 hr 3 hr 6 hr
6 hour
Temperature (ºF) Pressure Precipitation (in)